ICEYE-X1 (43114 NORAD) Tracking and Keplerian Element Data

This shows tracking and keplerian element data for the satellite.

Feedback or suggestion? Click here.




ElementValue
Catalog43114
NameICEYE-X1
Epoch Orbit33486
Epoch Day13.1383807
Epoch Year2024
RAAN100.1317
Inclination97.2898
Eccentricity0.0001523
Argument of Perigee356.1639
Mean Anonmoly3.962
Mean Motion15.85299161
Decay Rate0.00356466
L11 43114U 18004D 24013.13838070 .00356466 00000+0 14501-2 0 9998
L22 43114 97.2898 100.1317 0001523 356.1639 3.9620 15.85299161334866



Live tracking and technical data element details for ICEYE-X1 (NORAD 43114). ICEYE-X1 can be tracked NOW for your location showing map with azimuth and elevation plus other details from your city location.







IsCatalogInMostPopularTable: catalog: 43114, numindb: 986
Update: records affected: 1



GetName: 43114 ICEYE-X1

Hit Count: updated at: Wed, 14 May 2025 02:08:52 GMT